Location: Brede
(50.9167°N, 0.6000°E)
Time: 03:15:51
(UTC+00:00)

Nadezhda 4 Rocket - Pass Details

Date: 08 August 2020
Orbit: 949 x 993 km, 82.9° (Epoch: 25 September)

Event Time Altitude Azimuth Distance (km) Brightness Sun altitude
Rises 00:48:01 0° 348° (NNW) 3,716 8.2 -22.3°
Reaches altitude 10° 00:50:33 10° 347° (NNW) 2,759 7.3 -22.2°
Maximum altitude 00:56:52 73° 264° (W) 1,026 4.0 -22.0°
Enters shadow 00:59:02 43° 192° (SSW) 1,352 4.2 -21.9°
